Time,TemperatureF,DewpointF,PressureIn,WindDirection,WindDirectionDegrees,WindSpeedMPH,WindSpeedGustMPH,Humidity,HourlyPrecipIn,Conditions,Clouds,dailyrainin,SoftwareType,DateUTC
2014-02-03 00:08:00,17.6,12.0,30.38,NNE,19,1.0,1.0,77,0.00,,,0.00,weatherlink.com 1.10,2014-02-03 06:08:00,
2014-02-03 00:23:00,19.3,13.0,30.39,NNE,19,0.0,1.0,75,0.00,,,0.00,weatherlink.com 1.10,2014-02-03 06:23:00,
2014-02-03 00:38:00,17.4,11.0,30.39,NNE,19,0.0,0.0,75,0.00,,,0.00,weatherlink.com 1.10,2014-02-03 06:38:00,
2014-02-03 00:53:00,15.9,10.0,30.39,NNE,19,0.0,0.0,77,0.00,,,0.00,weatherlink.com 1.10,2014-02-03 06:53:00,
2014-02-03 01:08:00,15.9,11.0,30.38,NNE,19,0.0,0.0,79,0.00,,,0.00,weatherlink.com 1.10,2014-02-03 07:08:00,
2014-02-03 01:23:00,15.5,10.0,30.38,NNE,19,0.0,0.0,79,0.00,,,0.00,weatherlink.com 1.10,2014-02-03 07:23:00,
2014-02-03 01:38:00,15.3,10.0,30.38,NNE,19,0.0,0.0,80,0.00,,,0.00,weatherlink.com 1.10,2014-02-03 07:38:00,
2014-02-03 01:53:00,16.1,11.0,30.37,NNE,19,0.0,0.0,81,0.00,,,0.00,weatherlink.com 1.10,2014-02-03 07:53:00,
2014-02-03 02:08:00,17.1,12.0,30.37,NNE,19,0.0,0.0,81,0.00,,,0.00,weatherlink.com 1.10,2014-02-03 08:08:00,
2014-02-03 02:23:00,18.1,13.0,30.37,NNE,19,0.0,0.0,81,0.00,,,0.00,weatherlink.com 1.10,2014-02-03 08:23:00,
2014-02-03 02:38:00,18.6,14.0,30.37,NNE,19,0.0,0.0,82,0.00,,,0.00,weatherlink.com 1.10,2014-02-03 08:38:00,
2014-02-03 02:53:00,20.3,16.0,30.37,NNE,19,1.0,3.0,82,0.00,,,0.00,weatherlink.com 1.10,2014-02-03 08:53:00,
2014-02-03 03:08:00,21.4,16.0,30.37,NNE,19,1.0,3.0,80,0.00,,,0.00,weatherlink.com 1.10,2014-02-03 09:08:00,
2014-02-03 03:23:00,21.9,16.0,30.37,NNE,19,0.0,2.0,78,0.00,,,0.00,weatherlink.com 1.10,2014-02-03 09:23:00,
2014-02-03 03:38:00,22.1,16.0,30.37,NNE,19,1.0,2.0,78,0.00,,,0.00,weatherlink.com 1.10,2014-02-03 09:38:00,
2014-02-03 03:53:00,22.3,16.0,30.36,NNE,19,0.0,2.0,78,0.00,,,0.00,weatherlink.com 1.10,2014-02-03 09:53:00,
2014-02-03 04:08:00,22.6,17.0,30.37,NNE,26,0.0,3.0,78,0.00,,,0.00,weatherlink.com 1.10,2014-02-03 10:08:00,
2014-02-03 04:23:00,22.7,17.0,30.37,NNE,26,1.0,4.0,77,0.00,,,0.00,weatherlink.com 1.10,2014-02-03 10:23:00,
2014-02-03 04:38:00,22.8,17.0,30.36,NNE,26,1.0,4.0,77,0.00,,,0.00,weatherlink.com 1.10,2014-02-03 10:38:00,
2014-02-03 04:53:00,22.8,17.0,30.35,NE,38,2.0,5.0,77,0.00,,,0.00,weatherlink.com 1.10,2014-02-03 10:53:00,
2014-02-03 05:08:00,22.8,17.0,30.35,NE,49,0.0,0.0,77,0.00,,,0.00,weatherlink.com 1.10,2014-02-03 11:08:00,
2014-02-03 05:23:00,22.8,16.0,30.34,East,81,0.0,0.0,76,0.00,,,0.00,weatherlink.com 1.10,2014-02-03 11:23:00,
2014-02-03 05:39:00,22.8,16.0,30.33,East,90,1.0,1.0,76,0.00,,,0.00,weatherlink.com 1.10,2014-02-03 11:39:00,
2014-02-03 05:54:00,22.6,16.0,30.33,East,98,0.0,2.0,76,0.00,,,0.00,weatherlink.com 1.10,2014-02-03 11:54:00,
2014-02-03 06:09:00,22.5,16.0,30.33,East,81,0.0,2.0,76,0.00,,,0.00,weatherlink.com 1.10,2014-02-03 12:09:00,
2014-02-03 06:24:00,22.4,16.0,30.33,East,97,0.0,2.0,76,0.00,,,0.00,weatherlink.com 1.10,2014-02-03 12:24:00,
2014-02-03 06:39:00,22.3,16.0,30.33,ESE,106,0.0,1.0,76,0.00,,,0.00,weatherlink.com 1.10,2014-02-03 12:39:00,
2014-02-03 06:54:00,22.1,16.0,30.32,East,80,0.0,3.0,76,0.00,,,0.00,weatherlink.com 1.10,2014-02-03 12:54:00,
2014-02-03 07:09:00,22.1,16.0,30.33,East,86,0.0,0.0,76,0.00,,,0.00,weatherlink.com 1.10,2014-02-03 13:09:00,
2014-02-03 07:24:00,22.1,16.0,30.33,East,96,0.0,2.0,76,0.00,,,0.00,weatherlink.com 1.10,2014-02-03 13:24:00,
2014-02-03 07:39:00,21.9,16.0,30.34,East,98,0.0,0.0,77,0.00,,,0.00,weatherlink.com 1.10,2014-02-03 13:39:00,
2014-02-03 07:54:00,21.7,15.0,30.34,SE,124,0.0,2.0,76,0.00,,,0.00,weatherlink.com 1.10,2014-02-03 13:54:00,
2014-02-03 08:09:00,22.3,16.0,30.34,SE,127,0.0,2.0,75,0.00,,,0.00,weatherlink.com 1.10,2014-02-03 14:09:00,
2014-02-03 08:24:00,22.2,15.0,30.35,SE,126,0.0,2.0,74,0.00,,,0.00,weatherlink.com 1.10,2014-02-03 14:24:00,
2014-02-03 08:39:00,21.9,15.0,30.36,ESE,123,0.0,1.0,74,0.00,,,0.00,weatherlink.com 1.10,2014-02-03 14:39:00,
2014-02-03 08:54:00,23.4,16.0,30.38,SE,124,0.0,0.0,73,0.00,,,0.00,weatherlink.com 1.10,2014-02-03 14:54:00,
2014-02-03 09:09:00,24.5,16.0,30.38,ESE,123,0.0,0.0,71,0.00,,,0.00,weatherlink.com 1.10,2014-02-03 15:09:00,
2014-02-03 09:24:00,24.3,16.0,30.39,South,181,0.0,0.0,71,0.00,,,0.00,weatherlink.com 1.10,2014-02-03 15:24:00,
2014-02-03 09:39:00,24.1,16.0,30.40,South,181,0.0,0.0,71,0.00,,,0.00,weatherlink.com 1.10,2014-02-03 15:39:00,
2014-02-03 09:54:00,24.9,17.0,30.39,South,181,0.0,0.0,71,0.00,,,0.00,weatherlink.com 1.10,2014-02-03 15:54:00,
2014-02-03 10:09:00,26.7,18.0,30.38,South,181,0.0,0.0,69,0.00,,,0.00,weatherlink.com 1.10,2014-02-03 16:09:00,
2014-02-03 10:24:00,28.5,18.0,30.38,South,181,0.0,4.0,66,0.00,,,0.00,weatherlink.com 1.10,2014-02-03 16:24:00,
2014-02-03 10:39:00,28.6,18.0,30.38,SSE,153,0.0,2.0,66,0.00,,,0.00,weatherlink.com 1.10,2014-02-03 16:39:00,
2014-02-03 10:54:00,27.8,18.0,30.39,South,177,1.0,4.0,67,0.00,,,0.00,weatherlink.com 1.10,2014-02-03 16:54:00,
2014-02-03 11:09:00,28.4,19.0,30.38,SSE,165,0.0,2.0,68,0.01,,,0.01,weatherlink.com 1.10,2014-02-03 17:09:00,
2014-02-03 11:24:00,28.5,19.0,30.36,SSE,159,1.0,2.0,67,0.01,,,0.01,weatherlink.com 1.10,2014-02-03 17:24:00,
2014-02-03 11:39:00,29.4,20.0,30.35,SE,136,2.0,2.0,68,0.01,,,0.01,weatherlink.com 1.10,2014-02-03 17:39:00,
2014-02-03 11:54:00,29.0,19.0,30.34,East,80,1.0,4.0,67,0.00,,,0.01,weatherlink.com 1.10,2014-02-03 17:54:00,
2014-02-03 12:09:00,29.1,20.0,30.33,East,90,3.0,3.0,69,0.00,,,0.01,weatherlink.com 1.10,2014-02-03 18:09:00,
2014-02-03 12:24:00,29.1,20.0,30.31,East,87,1.0,3.0,70,0.00,,,0.01,weatherlink.com 1.10,2014-02-03 18:24:00,
2014-02-03 12:39:00,29.8,21.0,30.31,ENE,78,1.0,3.0,70,0.00,,,0.01,weatherlink.com 1.10,2014-02-03 18:39:00,
2014-02-03 12:54:00,29.8,22.0,30.30,East,84,0.0,2.0,72,0.00,,,0.01,weatherlink.com 1.10,2014-02-03 18:54:00,
2014-02-03 13:09:00,30.4,22.0,30.29,ESE,102,1.0,2.0,72,0.00,,,0.01,weatherlink.com 1.10,2014-02-03 19:09:00,
2014-02-03 13:24:00,30.8,23.0,30.28,SE,129,2.0,2.0,73,0.00,,,0.01,weatherlink.com 1.10,2014-02-03 19:24:00,
2014-02-03 13:39:00,31.5,24.0,30.27,SE,138,0.0,3.0,73,0.00,,,0.01,weatherlink.com 1.10,2014-02-03 19:39:00,
2014-02-03 13:54:00,31.7,24.0,30.26,SE,127,0.0,2.0,73,0.00,,,0.01,weatherlink.com 1.10,2014-02-03 19:54:00,
2014-02-03 14:09:00,32.0,24.0,30.26,South,183,0.0,3.0,73,0.00,,,0.01,weatherlink.com 1.10,2014-02-03 20:09:00,
2014-02-03 14:24:00,31.9,25.0,30.26,SSE,160,0.0,0.0,74,0.00,,,0.01,weatherlink.com 1.10,2014-02-03 20:24:00,
2014-02-03 14:39:00,32.1,25.0,30.25,SE,143,0.0,2.0,75,0.00,,,0.01,weatherlink.com 1.10,2014-02-03 20:39:00,
2014-02-03 14:54:00,31.9,25.0,30.24,SE,128,3.0,5.0,75,0.00,,,0.01,weatherlink.com 1.10,2014-02-03 20:54:00,
2014-02-03 15:09:00,32.3,26.0,30.24,ESE,113,2.0,5.0,76,0.00,,,0.01,weatherlink.com 1.10,2014-02-03 21:09:00,
2014-02-03 15:25:00,32.2,25.0,30.23,SE,139,0.0,6.0,76,0.00,,,0.01,weatherlink.com 1.10,2014-02-03 21:25:00,
2014-02-03 15:40:00,31.8,25.0,30.23,SSE,148,2.0,5.0,77,0.00,,,0.01,weatherlink.com 1.10,2014-02-03 21:40:00,
2014-02-03 15:55:00,31.9,26.0,30.23,SE,131,1.0,3.0,78,0.00,,,0.01,weatherlink.com 1.10,2014-02-03 21:55:00,
2014-02-03 16:10:00,31.8,26.0,30.22,ESE,120,2.0,6.0,79,0.00,,,0.01,weatherlink.com 1.10,2014-02-03 22:10:00,
2014-02-03 16:25:00,32.1,26.0,30.22,SE,127,3.0,4.0,79,0.00,,,0.01,weatherlink.com 1.10,2014-02-03 22:25:00,
2014-02-03 16:40:00,32.5,27.0,30.20,ESE,119,1.0,2.0,80,0.00,,,0.01,weatherlink.com 1.10,2014-02-03 22:40:00,
2014-02-03 16:55:00,32.2,27.0,30.20,SE,131,0.0,7.0,80,0.00,,,0.01,weatherlink.com 1.10,2014-02-03 22:55:00,
2014-02-03 17:10:00,32.2,27.0,30.20,SE,138,0.0,5.0,80,0.00,,,0.01,weatherlink.com 1.10,2014-02-03 23:10:00,
2014-02-03 17:25:00,32.4,27.0,30.19,SSE,151,0.0,5.0,81,0.00,,,0.01,weatherlink.com 1.10,2014-02-03 23:25:00,
2014-02-03 17:40:00,32.5,27.0,30.19,South,169,0.0,3.0,81,0.00,,,0.01,weatherlink.com 1.10,2014-02-03 23:40:00,
2014-02-03 17:55:00,32.4,27.0,30.18,South,170,0.0,0.0,81,0.00,,,0.01,weatherlink.com 1.10,2014-02-03 23:55:00,
2014-02-03 18:10:00,32.2,27.0,30.18,SSE,150,0.0,1.0,82,0.00,,,0.01,weatherlink.com 1.10,2014-02-04 00:10:00,
2014-02-03 18:25:00,32.0,27.0,30.18,SSE,150,0.0,0.0,82,0.00,,,0.01,weatherlink.com 1.10,2014-02-04 00:25:00,
2014-02-03 18:40:00,32.0,27.0,30.18,SE,139,0.0,0.0,82,0.00,,,0.01,weatherlink.com 1.10,2014-02-04 00:40:00,
2014-02-03 18:55:00,32.1,27.0,30.18,SE,139,0.0,0.0,82,0.00,,,0.01,weatherlink.com 1.10,2014-02-04 00:55:00,
2014-02-03 19:10:00,32.1,27.0,30.18,SE,138,0.0,0.0,82,0.00,,,0.01,weatherlink.com 1.10,2014-02-04 01:10:00,
2014-02-03 19:25:00,32.2,27.0,30.17,SE,138,0.0,0.0,81,0.00,,,0.01,weatherlink.com 1.10,2014-02-04 01:25:00,
2014-02-03 19:40:00,32.3,27.0,30.17,SE,138,0.0,0.0,82,0.00,,,0.01,weatherlink.com 1.10,2014-02-04 01:40:00,
2014-02-03 19:55:00,32.3,27.0,30.16,East,96,0.0,2.0,82,0.00,,,0.01,weatherlink.com 1.10,2014-02-04 01:55:00,
2014-02-03 20:10:00,32.2,27.0,30.17,East,96,0.0,0.0,82,0.00,,,0.01,weatherlink.com 1.10,2014-02-04 02:10:00,
2014-02-03 20:25:00,32.3,28.0,30.15,East,98,0.0,2.0,83,0.00,,,0.01,weatherlink.com 1.10,2014-02-04 02:25:00,
2014-02-03 20:40:00,32.7,28.0,30.14,East,94,3.0,4.0,83,0.00,,,0.01,weatherlink.com 1.10,2014-02-04 02:40:00,
2014-02-03 20:55:00,33.0,28.0,30.15,ESE,107,0.0,5.0,82,0.00,,,0.01,weatherlink.com 1.10,2014-02-04 02:55:00,
2014-02-03 21:10:00,33.1,28.0,30.16,East,85,0.0,3.0,82,0.00,,,0.01,weatherlink.com 1.10,2014-02-04 03:10:00,
2014-02-03 21:25:00,33.1,28.0,30.15,East,85,0.0,0.0,81,0.00,,,0.01,weatherlink.com 1.10,2014-02-04 03:25:00,
2014-02-03 21:40:00,33.0,28.0,30.16,East,85,0.0,0.0,81,0.00,,,0.01,weatherlink.com 1.10,2014-02-04 03:40:00,
2014-02-03 21:55:00,33.1,28.0,30.16,East,85,0.0,0.0,82,0.00,,,0.01,weatherlink.com 1.10,2014-02-04 03:55:00,
2014-02-03 22:10:00,32.9,28.0,30.16,East,85,0.0,0.0,82,0.00,,,0.01,weatherlink.com 1.10,2014-02-04 04:10:00,
2014-02-03 22:25:00,33.1,28.0,30.16,East,85,0.0,0.0,81,0.00,,,0.01,weatherlink.com 1.10,2014-02-04 04:25:00,
2014-02-03 22:40:00,32.7,28.0,30.15,East,85,0.0,0.0,82,0.00,,,0.01,weatherlink.com 1.10,2014-02-04 04:40:00,
2014-02-03 22:55:00,33.0,28.0,30.15,East,85,0.0,0.0,82,0.00,,,0.01,weatherlink.com 1.10,2014-02-04 04:55:00,
2014-02-03 23:10:00,33.3,28.0,30.16,East,85,0.0,0.0,81,0.00,,,0.01,weatherlink.com 1.10,2014-02-04 05:10:00,
2014-02-03 23:25:00,33.5,28.0,30.13,East,86,0.0,0.0,81,0.00,,,0.01,weatherlink.com 1.10,2014-02-04 05:25:00,
2014-02-03 23:40:00,33.7,28.0,30.12,East,83,3.0,4.0,80,0.00,,,0.01,weatherlink.com 1.10,2014-02-04 05:40:00,
2014-02-03 23:55:00,33.6,28.0,30.14,ESE,107,0.0,4.0,80,0.00,,,0.01,weatherlink.com 1.10,2014-02-04 05:55:00,